Location: Dziadowski
(50.3833°N, 20.0333°E)
Time: 07:39:34
(UTC+00:00)

DMSP B5D1-3 - Pass Details

Date: 18 January 2026
Orbit: 759 x 772 km, 98.5° (Epoch: 16 February)

Event Time Altitude Azimuth Distance (km) Brightness Sun altitude
Rises 04:27:02 0° 165° (SSE) 3,213 8.0 -19.3°
Reaches altitude 10° 04:29:19 10° 166° (SSE) 2,290 7.2 -18.9°
Maximum altitude 04:34:23 84° 256° (WSW) 772 4.4 -18.1°
Drops below altitude 10° 04:39:28 10° 344° (NNW) 2,302 6.7 -17.4°
Enters shadow 04:41:12 - 345° (NNW) 3,002 7.3 -17.1°
